EN

Hourly Weather Basse Santa Su

Today, 7 March, Sunday

Time Temperature Precipitation Wind Pressure Humidity
00:00 +28°C° 0 mm 3 mps 756 mmHg 38%
01:00 +26°C° 0 mm 3 mps 756 mmHg 42%
02:00 +25°C° 0 mm 2 mps 756 mmHg 46%
03:00 +24°C° 0 mm 2 mps 756 mmHg 50%
04:00 +23°C° 0 mm 2 mps 756 mmHg 54%
05:00 +21°C° 0 mm 2 mps 756 mmHg 58%
06:00 +24°C° 0 mm 2 mps 757 mmHg 52%
07:00 +25°C° 0 mm 2 mps 757 mmHg 47%
08:00 +27°C° 0 mm 1 mps 758 mmHg 42%
09:00 +31°C° 0 mm 1 mps 757 mmHg 32%
10:00 +35°C° 0 mm 1 mps 757 mmHg 22%
11:00 +41°C° 0 mm 1 mps 757 mmHg 12%
12:00 +42°C° 0 mm 1 mps 756 mmHg 11%
13:00 +43°C° 0 mm 1 mps 755 mmHg 10%
14:00 +45°C° 0 mm 2 mps 754 mmHg 9%
15:00 +45°C° 0 mm 2 mps 753 mmHg 10%
16:00 +43°C° 0 mm 1 mps 753 mmHg 10%
17:00 +43°C° 0 mm 1 mps 753 mmHg 10%
18:00 +40°C° 0 mm 1 mps 753 mmHg 12%
19:00 +36°C° 0 mm 1 mps 754 mmHg 14%
20:00 +31°C° 0 mm 0 mps 755 mmHg 16%
21:00 +32°C° 0 mm 1 mps 755 mmHg 17%
22:00 +31°C° 0 mm 2 mps 755 mmHg 17%
23:00 +30°C° 0 mm 2 mps 756 mmHg 18%

Tomorrow, 8 March, Monday

Time Temperature Precipitation Wind Pressure Humidity
00:00 +29°C° 0 mm 1 mps 756 mmHg 20%
01:00 +28°C° 0 mm 1 mps 755 mmHg 22%
02:00 +24°C° 0 mm 0 mps 755 mmHg 24%
03:00 +24°C° 0 mm 0 mps 755 mmHg 24%
04:00 +23°C° 0 mm 0 mps 755 mmHg 25%
05:00 +22°C° 0 mm 0 mps 756 mmHg 25%
06:00 +26°C° 0 mm 1 mps 756 mmHg 22%
07:00 +28°C° 0 mm 1 mps 756 mmHg 19%
08:00 +30°C° 0 mm 2 mps 757 mmHg 16%
09:00 +34°C° 0 mm 2 mps 757 mmHg 13%
10:00 +37°C° 0 mm 2 mps 756 mmHg 11%
11:00 +40°C° 0 mm 3 mps 756 mmHg 9%
12:00 +42°C° 0 mm 3 mps 755 mmHg 8%
13:00 +43°C° 0 mm 2 mps 754 mmHg 8%
14:00 +45°C° 0 mm 2 mps 753 mmHg 7%
15:00 +45°C° 0 mm 2 mps 752 mmHg 8%
16:00 +43°C° 0 mm 2 mps 752 mmHg 8%
17:00 +43°C° 0 mm 2 mps 752 mmHg 8%
18:00 +40°C° 0 mm 2 mps 752 mmHg 10%
19:00 +37°C° 0 mm 2 mps 753 mmHg 12%
20:00 +34°C° 0 mm 2 mps 754 mmHg 13%
21:00 +32°C° 0 mm 2 mps 754 mmHg 14%
22:00 +31°C° 0 mm 3 mps 755 mmHg 14%
23:00 +30°C° 0 mm 3 mps 755 mmHg 15%

Day after tomorrow, 9 March, Tuesday

Time Temperature Precipitation Wind Pressure Humidity
00:00 +28°C° 0 mm 2 mps 755 mmHg 21%
01:00 +26°C° 0 mm 2 mps 755 mmHg 27%
02:00 +24°C° 0 mm 1 mps 755 mmHg 34%
03:00 +24°C° 0 mm 1 mps 755 mmHg 37%
04:00 +23°C° 0 mm 1 mps 755 mmHg 41%
05:00 +22°C° 0 mm 1 mps 755 mmHg 44%
06:00 +22°C° 0 mm 0 mps 755 mmHg 38%
07:00 +24°C° 0 mm 0 mps 756 mmHg 32%
08:00 +26°C° 0 mm 0 mps 756 mmHg 27%
09:00 +31°C° 0 mm 1 mps 756 mmHg 21%
10:00 +35°C° 0 mm 2 mps 756 mmHg 15%
11:00 +38°C° 0 mm 2 mps 756 mmHg 10%
12:00 +40°C° 0 mm 2 mps 755 mmHg 9%
13:00 +41°C° 0 mm 2 mps 754 mmHg 8%
14:00 +43°C° 0 mm 2 mps 752 mmHg 7%
15:00 +42°C° 0 mm 2 mps 752 mmHg 8%
16:00 +42°C° 0 mm 2 mps 752 mmHg 8%
17:00 +42°C° 0 mm 2 mps 752 mmHg 8%
18:00 +39°C° 0 mm 2 mps 753 mmHg 10%
19:00 +36°C° 0 mm 2 mps 753 mmHg 12%
20:00 +32°C° 0 mm 2 mps 754 mmHg 14%
21:00 +31°C° 0 mm 3 mps 754 mmHg 14%
22:00 +31°C° 0 mm 3 mps 754 mmHg 15%
23:00 +30°C° 0 mm 3 mps 755 mmHg 15%

10 March, Wednesday

Time Temperature Precipitation Wind Pressure Humidity
00:00 +28°C° 0 mm 3 mps 755 mmHg 17%
01:00 +27°C° 0 mm 2 mps 755 mmHg 18%
02:00 +25°C° 0 mm 1 mps 754 mmHg 20%
03:00 +25°C° 0 mm 1 mps 755 mmHg 23%
04:00 +24°C° 0 mm 1 mps 755 mmHg 26%
05:00 +21°C° 0 mm 0 mps 755 mmHg 29%
06:00 +25°C° 0 mm 1 mps 755 mmHg 26%
07:00 +26°C° 0 mm 1 mps 756 mmHg 23%
08:00 +28°C° 0 mm 2 mps 757 mmHg 19%
09:00 +31°C° 0 mm 2 mps 756 mmHg 16%
10:00 +35°C° 0 mm 3 mps 756 mmHg 14%
11:00 +37°C° 0 mm 3 mps 756 mmHg 11%
12:00 +39°C° 0 mm 3 mps 755 mmHg 10%
13:00 +40°C° 0 mm 3 mps 754 mmHg 9%
14:00 +43°C° 0 mm 3 mps 753 mmHg 9%
15:00 +41°C° 0 mm 2 mps 753 mmHg 9%
16:00 +41°C° 0 mm 2 mps 753 mmHg 9%
17:00 +41°C° 0 mm 2 mps 752 mmHg 9%
18:00 +38°C° 0 mm 2 mps 753 mmHg 11%
19:00 +35°C° 0 mm 2 mps 754 mmHg 13%
20:00 +32°C° 0 mm 2 mps 754 mmHg 15%
21:00 +31°C° 0 mm 2 mps 754 mmHg 15%
22:00 +30°C° 0 mm 2 mps 755 mmHg 15%
23:00 +29°C° 0 mm 3 mps 755 mmHg 15%

11 March, Thursday

Time Temperature Precipitation Wind Pressure Humidity
00:00 +28°C° 0 mm 2 mps 755 mmHg 16%
01:00 +27°C° 0 mm 2 mps 755 mmHg 17%
02:00 +26°C° 0 mm 2 mps 755 mmHg 17%
03:00 +25°C° 0 mm 1 mps 755 mmHg 18%
04:00 +24°C° 0 mm 1 mps 755 mmHg 18%
05:00 +23°C° 0 mm 1 mps 755 mmHg 19%
06:00 +25°C° 0 mm 1 mps 756 mmHg 16%
07:00 +27°C° 0 mm 2 mps 756 mmHg 13%
08:00 +28°C° 0 mm 2 mps 757 mmHg 11%
09:00 +31°C° 0 mm 2 mps 756 mmHg 10%
10:00 +35°C° 0 mm 3 mps 756 mmHg 8%
11:00 +38°C° 0 mm 3 mps 756 mmHg 7%
12:00 +40°C° 0 mm 3 mps 755 mmHg 7%
13:00 +41°C° 0 mm 2 mps 754 mmHg 7%
14:00 +43°C° 0 mm 2 mps 753 mmHg 7%
15:00 +42°C° 0 mm 2 mps 752 mmHg 7%
16:00 +42°C° 0 mm 2 mps 752 mmHg 8%
17:00 +41°C° 0 mm 2 mps 752 mmHg 8%
18:00 +39°C° 0 mm 2 mps 752 mmHg 9%
19:00 +36°C° 0 mm 2 mps 753 mmHg 11%
20:00 +32°C° 0 mm 1 mps 754 mmHg 12%
21:00 +31°C° 0 mm 2 mps 754 mmHg 13%
22:00 +30°C° 0 mm 2 mps 755 mmHg 13%
23:00 +29°C° 0 mm 2 mps 755 mmHg 14%

12 March, Friday

Time Temperature Precipitation Wind Pressure Humidity
00:00 +28°C° 0 mm 2 mps 755 mmHg 16%
01:00 +26°C° 0 mm 2 mps 755 mmHg 18%
02:00 +25°C° 0 mm 1 mps 754 mmHg 20%
03:00 +24°C° 0 mm 1 mps 754 mmHg 23%
04:00 +23°C° 0 mm 1 mps 754 mmHg 26%
05:00 +20°C° 0 mm 0 mps 755 mmHg 29%
06:00 +24°C° 0 mm 1 mps 755 mmHg 28%
07:00 +26°C° 0 mm 1 mps 756 mmHg 27%
08:00 +28°C° 0 mm 1 mps 756 mmHg 27%
09:00 +31°C° 0 mm 2 mps 756 mmHg 21%
10:00 +35°C° 0 mm 3 mps 755 mmHg 16%
11:00 +39°C° 0 mm 3 mps 755 mmHg 11%
12:00 +40°C° 0 mm 3 mps 754 mmHg 10%
13:00 +43°C° 0 mm 3 mps 753 mmHg 9%
14:00 +43°C° 0 mm 2 mps 752 mmHg 7%
15:00 +43°C° 0 mm 2 mps 752 mmHg 8%
16:00 +43°C° 0 mm 2 mps 752 mmHg 8%
17:00 +42°C° 0 mm 2 mps 751 mmHg 8%
18:00 +39°C° 0 mm 2 mps 752 mmHg 9%
19:00 +36°C° 0 mm 1 mps 753 mmHg 10%
20:00 +33°C° 0 mm 1 mps 753 mmHg 12%
21:00 +32°C° 0 mm 2 mps 754 mmHg 13%
22:00 +31°C° 0 mm 2 mps 754 mmHg 13%
23:00 +30°C° 0 mm 2 mps 755 mmHg 14%
Show more

We Need Your Consent

Meteoprog and our Service Providers may store and access personal data such as cookies, device identifiers or other similar technologies on your device and process such data to personalise content and ads, as well as provide social media features and to analyse the traffic.

  • Store and/or access information on your device

    Cookies, device identifiers or other information can be stored or accessed on your device for the purposes indicated above.

  • Personalised ads and content, ad and content measurement, audience insights, and products development

    Ads and content can be personalised based on a profile. More data can be added to better personalise ads and content. Ad and content performance can be measured. Insights about the audience who saw the ads and content can be derived. Such data can be used to develop or improve user’s experience, systems and software.

By clicking ‘I Agree’ you will allow the use of indicated cookies, device identifiers, web beacons or other similar technologies. Your settings can be changed in the browser on your device.

For certain purposes, legitimate interests may be relied on, rather than consent. You can read more about this in our Privacy and Cookie Policy.